When you browse on this site, cookies collect data to enhance your experience and personalize the content and advertising you see.
Visit our Privacy Policy to learn more. By continuing to use the site, you agree to this use of cookies and data.
  • Em Portugal
  • Lista de países
  • Para 7 dias
  • Temperatura da água
  • Mapas de satélite
  • Mapa do tempo
  • Widgets de tempo
  • user-avatar
    Iniciar Sessão

    Previsão horária em Nagasaqui

    Hoje, 20 Janeiro, Domingo

    Tempo Temperatura Precipitação Vento Pressão Humidade
    00:00 +18°C° 0.1 mm 9 m/s 761 mmHg 69%
    01:00 +17°C° 0.2 mm 10 m/s 760 mmHg 71%
    02:00 +17°C° 0.2 mm 10 m/s 760 mmHg 73%
    03:00 +17°C° 0 mm 11 m/s 760 mmHg 75%
    04:00 +16°C° 0.1 mm 11 m/s 760 mmHg 76%
    05:00 +16°C° 0.1 mm 11 m/s 760 mmHg 77%
    06:00 +14°C° 0.1 mm 12 m/s 760 mmHg 78%
    07:00 +14°C° 0.3 mm 11 m/s 760 mmHg 77%
    08:00 +13°C° 0.3 mm 11 m/s 761 mmHg 77%
    09:00 +13°C° 0 mm 11 m/s 760 mmHg 76%
    10:00 +13°C° 0.1 mm 11 m/s 761 mmHg 74%
    11:00 +12°C° 0.1 mm 12 m/s 761 mmHg 72%
    12:00 +12°C° 0.1 mm 12 m/s 761 mmHg 70%
    13:00 +10°C° 0 mm 12 m/s 761 mmHg 70%
    14:00 +10°C° 0 mm 12 m/s 761 mmHg 70%
    15:00 +10°C° 0 mm 12 m/s 761 mmHg 69%
    16:00 +10°C° 0 mm 12 m/s 761 mmHg 69%
    17:00 +9°C° 0 mm 12 m/s 761 mmHg 69%
    18:00 +9°C° 0 mm 12 m/s 762 mmHg 68%
    19:00 +9°C° 0 mm 12 m/s 762 mmHg 68%
    20:00 +9°C° 0 mm 12 m/s 762 mmHg 68%
    21:00 +8°C° 0 mm 13 m/s 762 mmHg 68%
    22:00 +8°C° 0 mm 13 m/s 762 mmHg 70%
    23:00 +8°C° 0 mm 13 m/s 763 mmHg 73%

    Amanhã, 21 Janeiro, Segunda-feira

    Tempo Temperatura Precipitação Vento Pressão Humidade
    00:00 +7°C° 0 mm 13 m/s 763 mmHg 75%
    01:00 +7°C° 0 mm 13 m/s 763 mmHg 76%
    02:00 +7°C° 0 mm 13 m/s 763 mmHg 76%
    03:00 +5°C° 0 mm 13 m/s 763 mmHg 77%
    04:00 +5°C° 0 mm 12 m/s 763 mmHg 75%
    05:00 +7°C° 0 mm 12 m/s 763 mmHg 73%
    06:00 +7°C° 0 mm 11 m/s 763 mmHg 71%
    07:00 +7°C° 0 mm 10 m/s 764 mmHg 69%
    08:00 +7°C° 0 mm 10 m/s 764 mmHg 67%
    09:00 +7°C° 0 mm 9 m/s 764 mmHg 65%
    10:00 +7°C° 0 mm 9 m/s 764 mmHg 65%
    11:00 +7°C° 0 mm 9 m/s 764 mmHg 65%
    12:00 +7°C° 0 mm 9 m/s 764 mmHg 65%
    13:00 +7°C° 0 mm 9 m/s 763 mmHg 67%
    14:00 +7°C° 0 mm 9 m/s 763 mmHg 69%
    15:00 +7°C° 0 mm 9 m/s 762 mmHg 71%
    16:00 +8°C° 0.1 mm 9 m/s 762 mmHg 71%
    17:00 +8°C° 0.1 mm 9 m/s 762 mmHg 71%
    18:00 +8°C° 0.1 mm 9 m/s 763 mmHg 71%
    19:00 +8°C° 0.1 mm 9 m/s 763 mmHg 70%
    20:00 +8°C° 0.1 mm 9 m/s 763 mmHg 70%
    21:00 +9°C° 0.1 mm 10 m/s 763 mmHg 70%
    22:00 +9°C° 0.1 mm 10 m/s 763 mmHg 69%
    23:00 +9°C° 0.1 mm 10 m/s 763 mmHg 69%

    Depois de amanhã, 22 Janeiro, Terça-feira

    Tempo Temperatura Precipitação Vento Pressão Humidade
    00:00 +9°C° 0.1 mm 10 m/s 763 mmHg 69%
    01:00 +9°C° 0.1 mm 10 m/s 763 mmHg 69%
    02:00 +9°C° 0.1 mm 10 m/s 763 mmHg 69%
    03:00 +9°C° 0.1 mm 10 m/s 763 mmHg 69%
    04:00 +9°C° 0 mm 10 m/s 762 mmHg 68%
    05:00 +10°C° 0 mm 9 m/s 762 mmHg 67%
    06:00 +10°C° 0 mm 9 m/s 762 mmHg 66%
    07:00 +10°C° 0 mm 9 m/s 762 mmHg 65%
    08:00 +10°C° 0 mm 8 m/s 763 mmHg 64%
    09:00 +10°C° 0 mm 8 m/s 763 mmHg 63%
    10:00 +10°C° 0 mm 7 m/s 763 mmHg 63%
    11:00 +10°C° 0 mm 7 m/s 763 mmHg 63%
    12:00 +10°C° 0 mm 7 m/s 762 mmHg 63%
    13:00 +10°C° 0 mm 7 m/s 762 mmHg 63%
    14:00 +10°C° 0 mm 7 m/s 762 mmHg 63%
    15:00 +10°C° 0 mm 7 m/s 761 mmHg 63%
    16:00 +10°C° 0 mm 7 m/s 761 mmHg 62%
    17:00 +10°C° 0 mm 7 m/s 762 mmHg 62%
    18:00 +10°C° 0 mm 7 m/s 762 mmHg 61%
    19:00 +11°C° 0 mm 7 m/s 762 mmHg 59%
    20:00 +11°C° 0 mm 7 m/s 762 mmHg 58%
    21:00 +11°C° 0 mm 7 m/s 762 mmHg 56%
    22:00 +11°C° 0 mm 7 m/s 762 mmHg 56%
    23:00 +11°C° 0 mm 7 m/s 762 mmHg 56%

    23 Janeiro, Quarta-feira

    Tempo Temperatura Precipitação Vento Pressão Humidade
    00:00 +11°C° 0 mm 7 m/s 762 mmHg 56%
    01:00 +11°C° 0 mm 7 m/s 762 mmHg 57%
    02:00 +11°C° 0 mm 7 m/s 762 mmHg 58%
    03:00 +11°C° 0 mm 8 m/s 762 mmHg 59%
    04:00 +11°C° 0 mm 8 m/s 761 mmHg 60%
    05:00 +11°C° 0 mm 9 m/s 761 mmHg 61%
    06:00 +11°C° 0 mm 9 m/s 761 mmHg 62%
    07:00 +11°C° 0 mm 9 m/s 761 mmHg 62%
    08:00 +11°C° 0 mm 9 m/s 762 mmHg 62%
    09:00 +11°C° 0 mm 8 m/s 762 mmHg 62%
    10:00 +11°C° 0 mm 8 m/s 762 mmHg 60%
    11:00 +11°C° 0 mm 8 m/s 762 mmHg 59%
    12:00 +11°C° 0 mm 8 m/s 762 mmHg 58%
    13:00 +11°C° 0 mm 9 m/s 762 mmHg 60%
    14:00 +11°C° 0 mm 9 m/s 762 mmHg 62%
    15:00 +11°C° 0 mm 10 m/s 761 mmHg 63%
    16:00 +11°C° 0 mm 10 m/s 762 mmHg 65%
    17:00 +11°C° 0 mm 10 m/s 762 mmHg 66%
    18:00 +11°C° 0 mm 10 m/s 762 mmHg 67%
    19:00 +11°C° 0 mm 10 m/s 762 mmHg 66%
    20:00 +11°C° 0 mm 10 m/s 763 mmHg 65%
    21:00 +11°C° 0 mm 10 m/s 763 mmHg 64%
    22:00 +11°C° 0 mm 10 m/s 763 mmHg 63%
    23:00 +11°C° 0 mm 10 m/s 763 mmHg 63%

    24 Janeiro, Quinta-feira

    Tempo Temperatura Precipitação Vento Pressão Humidade
    00:00 +11°C° 0 mm 10 m/s 763 mmHg 63%
    01:00 +11°C° 0 mm 9 m/s 763 mmHg 62%
    02:00 +11°C° 0 mm 9 m/s 763 mmHg 62%
    03:00 +10°C° 0 mm 9 m/s 763 mmHg 61%
    04:00 +10°C° 0 mm 8 m/s 763 mmHg 60%
    05:00 +10°C° 0 mm 8 m/s 763 mmHg 58%
    06:00 +10°C° 0 mm 7 m/s 763 mmHg 56%
    07:00 +10°C° 0 mm 7 m/s 764 mmHg 55%
    08:00 +10°C° 0 mm 6 m/s 764 mmHg 55%
    09:00 +9°C° 0 mm 6 m/s 765 mmHg 55%
    10:00 +9°C° 0 mm 5 m/s 765 mmHg 53%
    11:00 +9°C° 0 mm 5 m/s 765 mmHg 51%
    12:00 +10°C° 0 mm 4 m/s 765 mmHg 49%
    13:00 +10°C° 0 mm 4 m/s 765 mmHg 49%
    14:00 +11°C° 0 mm 4 m/s 764 mmHg 50%
    15:00 +10°C° 0 mm 5 m/s 764 mmHg 50%
    16:00 +10°C° 0 mm 5 m/s 764 mmHg 51%
    17:00 +10°C° 0 mm 5 m/s 764 mmHg 51%
    18:00 +10°C° 0 mm 5 m/s 764 mmHg 52%
    19:00 +10°C° 0 mm 5 m/s 765 mmHg 52%
    20:00 +10°C° 0 mm 5 m/s 765 mmHg 52%
    21:00 +10°C° 0 mm 5 m/s 765 mmHg 52%
    22:00 +10°C° 0 mm 5 m/s 765 mmHg 52%
    23:00 +11°C° 0 mm 4 m/s 765 mmHg 52%

    25 Janeiro, Sexta-feira

    Tempo Temperatura Precipitação Vento Pressão Humidade
    00:00 +11°C° 0 mm 4 m/s 765 mmHg 52%
    01:00 +11°C° 0 mm 4 m/s 765 mmHg 52%
    02:00 +11°C° 0 mm 4 m/s 765 mmHg 53%
    03:00 +10°C° 0 mm 4 m/s 765 mmHg 53%
    04:00 +10°C° 0 mm 5 m/s 764 mmHg 53%
    05:00 +10°C° 0 mm 5 m/s 764 mmHg 53%
    06:00 +10°C° 0 mm 5 m/s 764 mmHg 52%
    07:00 +10°C° 0 mm 5 m/s 765 mmHg 53%
    08:00 +10°C° 0 mm 6 m/s 765 mmHg 54%
    09:00 +10°C° 0 mm 6 m/s 765 mmHg 55%
    10:00 +10°C° 0 mm 7 m/s 765 mmHg 55%
    11:00 +10°C° 0 mm 8 m/s 765 mmHg 56%
    12:00 +10°C° 0 mm 9 m/s 764 mmHg 56%
    13:00 +10°C° 0 mm 9 m/s 764 mmHg 59%
    14:00 +9°C° 0 mm 10 m/s 764 mmHg 62%
    15:00 +8°C° 0 mm 11 m/s 763 mmHg 65%
    16:00 +8°C° 0 mm 11 m/s 763 mmHg 66%
    17:00 +8°C° 0 mm 11 m/s 763 mmHg 68%
    18:00 +8°C° 0 mm 12 m/s 764 mmHg 69%
    19:00 +8°C° 0.1 mm 12 m/s 764 mmHg 68%
    20:00 +8°C° 0.1 mm 12 m/s 764 mmHg 67%
    21:00 +8°C° 0.1 mm 12 m/s 764 mmHg 66%
    22:00 +7°C° 0 mm 13 m/s 764 mmHg 67%
    23:00 +7°C° 0 mm 13 m/s 764 mmHg 69%
    Mostrar mais